DT_LEITURA;HR_LEITURA;MED-PressaoAtm[hPa];VAL-TempExt[oC];VAL-UmidExt[%UR];VAL-TempInt[oC];VAL-UmidInt[%UR];Dir-Vento[grau];Vel-Vento[m/s];Precipitação[mm/h]
02/09/2026;00:00:00;1013,2;-36,2;0;29,1;73;336;0,5;0,0
02/09/2026;00:05:00;1013,3;-36,2;0;29,1;73;354;0,6;0,0
02/09/2026;00:10:00;1013,3;-36,3;0;29,0;73;5;0,5;0,0
02/09/2026;00:15:00;1013,3;-36,3;0;29,0;73;327;0,5;0,0
02/09/2026;00:20:00;1013,3;-36,3;0;29,0;73;330;0,6;0,0
02/09/2026;00:25:00;1013,2;-36,3;0;28,9;73;282;0,6;0,0
02/09/2026;00:30:00;1013,3;-36,4;0;28,9;73;345;0,5;0,0
02/09/2026;00:35:00;1013,3;-36,4;0;28,9;73;14;0,4;0,0
02/09/2026;00:40:00;1013,2;-36,4;0;28,9;73;344;0,6;0,0
02/09/2026;00:45:00;1013,2;-36,4;0;28,8;73;332;0,5;0,0
02/09/2026;00:50:00;1013,2;-36,4;0;28,8;73;244;0,4;0,0
02/09/2026;00:55:00;1013,3;-36,4;0;28,8;73;47;0,3;0,0
02/09/2026;01:00:00;1013,2;-36,5;0;28,8;73;304;0,4;0,0
02/09/2026;01:05:00;1013,2;-36,5;0;28,7;73;300;0,4;0,0
02/09/2026;01:10:00;1013,2;-36,5;0;28,7;74;297;0,5;0,0
02/09/2026;01:15:00;1013,1;-36,5;0;28,7;74;285;0,4;0,0
02/09/2026;01:20:00;1013,1;-36,5;0;28,7;74;279;0,2;0,0
02/09/2026;01:25:00;1013,0;-36,5;0;28,7;74;346;0,5;0,0
02/09/2026;01:30:00;1013,0;-36,5;0;28,6;74;341;0,4;0,0
02/09/2026;01:35:00;1013,0;-36,5;0;28,6;74;8;0,4;0,0
02/09/2026;01:40:00;1012,9;-36,5;0;28,5;74;288;0,3;0,0
02/09/2026;01:45:00;1012,8;-36,6;0;28,5;74;319;0,4;0,0
02/09/2026;01:50:00;1012,7;-36,6;0;28,5;74;162;0,3;0,0
02/09/2026;01:55:00;1012,7;-36,6;0;28,5;74;342;0,4;0,0
02/09/2026;02:00:00;1012,6;-36,6;0;28,4;74;37;0,5;0,0
02/09/2026;02:05:00;1012,6;-36,6;0;28,4;74;357;0,5;0,0
02/09/2026;02:10:00;1012,6;-36,6;0;28,3;75;342;0,7;0,0
02/09/2026;02:15:00;1012,5;-36,6;0;28,2;75;312;0,5;0,0
02/09/2026;02:20:00;1012,4;-36,7;0;28,2;75;213;0,4;0,0
02/09/2026;02:25:00;1012,3;-36,7;0;28,1;76;317;0,4;0,0
02/09/2026;02:30:00;1012,3;-36,8;0;28,1;76;333;0,4;0,0
02/09/2026;02:35:00;1012,2;-36,8;0;28,1;76;295;0,3;0,0
02/09/2026;02:40:00;1012,1;-36,8;0;28,0;76;274;0,3;0,0
02/09/2026;02:45:00;1012,1;-36,8;0;28,0;76;360;0,3;0,0
02/09/2026;02:50:00;1012,1;-36,8;0;28,0;76;352;0,3;0,0
02/09/2026;02:55:00;1012,1;-36,8;0;28,0;76;356;0,3;0,0
02/09/2026;03:00:00;1012,1;-36,8;0;28,0;76;160;0,2;0,0
02/09/2026;03:05:00;1012,1;-36,8;0;28,0;76;150;0,4;0,0
02/09/2026;03:10:00;1012,1;-36,8;0;27,9;76;142;0,4;0,0
02/09/2026;03:15:00;1012,1;-36,9;0;27,9;76;132;0,4;0,0
02/09/2026;03:20:00;1012,1;-36,9;0;27,9;76;132;0,5;0,0
02/09/2026;03:25:00;1012,1;-36,9;0;27,8;77;135;0,5;0,0
02/09/2026;03:30:00;1012,1;-36,9;0;27,7;77;167;0,3;0,0
02/09/2026;03:35:00;1012,2;-36,9;0;27,7;77;160;0,3;0,0
02/09/2026;03:40:00;1012,2;-37,0;0;27,6;77;146;0,3;0,0
02/09/2026;03:45:00;1012,2;-37,0;0;27,6;77;18;0,2;0,0
02/09/2026;03:50:00;1012,2;-36,9;0;27,6;77;357;0,4;0,0
02/09/2026;03:55:00;1012,2;-36,9;0;27,6;77;19;0,4;0,0
02/09/2026;04:00:00;1012,2;-36,9;0;27,6;78;355;0,4;0,0
02/09/2026;04:05:00;1012,2;-36,9;0;27,7;78;16;0,3;0,0
02/09/2026;04:10:00;1012,2;-36,9;0;27,7;78;38;0,3;0,0
02/09/2026;04:15:00;1012,2;-36,8;0;27,7;78;30;0,3;0,0
02/09/2026;04:20:00;1012,2;-36,9;0;27,7;78;94;0,3;0,0
02/09/2026;04:25:00;1012,2;-36,9;0;27,7;77;290;0,4;0,0
02/09/2026;04:30:00;1012,1;-36,9;0;27,7;77;27;0,2;0,0
02/09/2026;04:35:00;1012,2;-36,9;0;27,7;77;37;0,3;0,0
02/09/2026;04:40:00;1012,3;-36,9;0;27,7;77;51;0,2;0,0
02/09/2026;04:45:00;1012,3;-36,9;0;27,7;77;17;0,3;0,0
02/09/2026;04:50:00;1012,3;-36,9;0;27,7;77;13;0,3;0,0
02/09/2026;04:55:00;1012,3;-36,9;0;27,7;77;356;0,4;0,0
02/09/2026;05:00:00;1012,3;-36,9;0;27,7;77;11;0,4;0,0
02/09/2026;05:05:00;1012,4;-36,9;0;27,7;78;13;0,4;0,0
02/09/2026;05:10:00;1012,4;-36,9;0;27,7;78;224;0,2;0,0
02/09/2026;05:15:00;1012,4;-36,9;0;27,7;78;174;0,2;0,0
02/09/2026;05:20:00;1012,4;-36,9;0;27,7;78;25;0,4;0,0
02/09/2026;05:25:00;1012,4;-36,9;0;27,7;78;3;0,3;0,0
02/09/2026;05:30:00;1012,4;-36,9;0;27,6;78;41;0,3;0,0
02/09/2026;05:35:00;1012,5;-36,9;0;27,6;78;204;0,2;0,0
02/09/2026;05:40:00;1012,5;-36,9;0;27,6;78;300;0,3;0,0
02/09/2026;05:45:00;1012,5;-36,9;0;27,6;78;17;0,4;0,0
02/09/2026;05:50:00;1012,5;-36,9;0;27,6;78;4;0,4;0,0
02/09/2026;05:55:00;1012,6;-36,9;0;27,6;78;349;0,4;0,0
02/09/2026;06:00:00;1012,6;-36,9;0;27,5;78;19;0,3;0,0
02/09/2026;06:05:00;1012,7;-36,9;0;27,5;78;355;0,4;0,0
02/09/2026;06:10:00;1012,7;-36,9;0;27,5;78;353;0,5;0,0
02/09/2026;06:15:00;1012,8;-36,9;0;27,4;78;310;0,5;0,0
02/09/2026;06:20:00;1012,9;-36,9;0;27,4;79;342;0,4;0,0
02/09/2026;06:25:00;1013,0;-36,9;0;27,4;79;353;0,5;0,0
02/09/2026;06:30:00;1013,0;-36,9;0;27,3;79;360;0,4;0,0
02/09/2026;06:35:00;1013,0;-36,9;0;27,3;79;354;0,4;0,0
02/09/2026;06:40:00;1013,0;-36,9;0;27,3;79;249;0,3;0,0
02/09/2026;06:45:00;1013,0;-37,0;0;27,3;79;274;0,3;0,0
02/09/2026;06:50:00;1013,1;-37,0;0;27,3;79;335;0,4;0,0
02/09/2026;06:55:00;1013,1;-37,0;0;27,3;79;336;0,5;0,0
02/09/2026;07:00:00;1013,2;-37,0;0;27,3;79;345;0,5;0,0
02/09/2026;07:05:00;1013,2;-37,0;0;27,3;80;349;0,4;0,0
02/09/2026;07:10:00;1013,3;-37,0;0;27,3;80;351;0,4;0,0
02/09/2026;07:15:00;1013,4;-36,9;0;27,4;79;351;0,5;0,0
02/09/2026;07:20:00;1013,4;-36,9;0;27,4;79;29;0,3;0,0
02/09/2026;07:25:00;1013,5;-36,9;0;27,5;79;12;0,5;0,0
02/09/2026;07:30:00;1013,5;-36,9;0;27,5;79;185;0,3;0,0
02/09/2026;07:35:00;1013,5;-36,9;0;27,6;79;81;0,3;0,0
02/09/2026;07:40:00;1013,5;-36,9;0;27,8;79;93;0,3;0,0
02/09/2026;07:45:00;1013,5;-36,8;0;27,9;79;67;0,3;0,0
02/09/2026;07:50:00;1013,6;-36,7;0;28,1;78;118;0,4;0,0
02/09/2026;07:55:00;1013,6;-36,7;0;28,2;77;34;0,4;0,0
02/09/2026;08:00:00;1013,6;-36,7;0;28,3;77;87;0,4;0,0
02/09/2026;08:05:00;1013,8;-36,6;0;28,4;77;79;0,4;0,0
02/09/2026;08:10:00;1013,8;-36,6;0;28,5;76;299;0,4;0,0
02/09/2026;08:15:00;1013,9;-36,5;0;28,6;76;170;0,5;0,0
02/09/2026;08:20:00;1013,9;-36,5;0;28,8;76;188;0,7;0,0
02/09/2026;08:25:00;1013,9;-36,4;0;28,9;76;204;0,6;0,0
02/09/2026;08:30:00;1014,0;-36,3;0;29,1;76;215;0,7;0,0
02/09/2026;08:35:00;1014,0;-36,2;0;29,2;75;194;0,7;0,0
02/09/2026;08:40:00;1014,1;-36,1;0;29,3;75;186;0,7;0,0
02/09/2026;08:45:00;1014,2;-35,9;0;29,4;75;145;0,8;0,0
02/09/2026;08:50:00;1014,2;-35,7;0;29,6;75;144;0,9;0,0
02/09/2026;08:55:00;1014,3;-35,3;0;29,8;74;136;1,0;0,0
02/09/2026;09:00:00;1014,3;-34,8;0;30,0;73;155;0,9;0,0
02/09/2026;09:05:00;1014,3;-34,5;0;30,1;73;138;0,9;0,0
02/09/2026;09:10:00;1014,3;-34,2;0;30,2;73;132;0,9;0,0
02/09/2026;09:15:00;1014,4;-33,9;0;30,3;72;173;0,9;0,0
02/09/2026;09:20:00;1014,4;-33,7;0;30,4;72;159;1,0;0,0
02/09/2026;09:25:00;1014,4;-33,5;0;30,4;72;130;1,0;0,0
02/09/2026;09:30:00;1014,4;-33,3;0;30,5;72;145;0,9;0,0
02/09/2026;09:35:00;1014,4;-33,0;0;30,8;72;146;0,7;0,0
02/09/2026;09:40:00;1014,4;-32,9;0;31,2;69;167;0,8;0,0
02/09/2026;09:45:00;1014,4;-33,6;0;31,7;69;145;1,1;0,0
02/09/2026;09:50:00;1014,4;-35,3;0;32,3;64;131;1,7;0,0
02/09/2026;09:55:00;1014,4;-36,9;0;32,5;62;125;1,6;0,0
02/09/2026;10:00:00;1014,4;-37,8;0;32,9;61;136;1,5;0,0
02/09/2026;10:05:00;1014,4;-38,4;0;33,4;60;130;1,3;0,0
02/09/2026;10:10:00;1014,4;-38,6;0;33,9;59;134;1,3;0,0
02/09/2026;10:15:00;1014,3;-38,8;0;34,5;58;132;1,0;0,0
02/09/2026;10:20:00;1014,3;-38,9;0;34,8;56;133;1,2;0,0
02/09/2026;10:25:00;1014,3;-39,0;0;35,0;55;128;1,5;0,0
02/09/2026;10:30:00;1014,2;-39,0;0;34,9;54;126;1,5;0,0
02/09/2026;10:35:00;1014,2;-39,1;0;34,7;55;137;1,1;0,0
02/09/2026;10:40:00;1014,2;-39,1;0;34,8;55;134;1,1;0,0
02/09/2026;10:45:00;1014,2;-39,1;0;35,1;53;125;1,3;0,0
02/09/2026;10:50:00;1014,1;-39,1;0;35,3;53;127;1,2;0,0
02/09/2026;10:55:00;1014,1;-39,1;0;35,7;52;122;0,9;0,0
02/09/2026;11:00:00;1014,0;-39,1;0;36,1;51;139;1,2;0,0
02/09/2026;11:05:00;1014,0;-39,1;0;36,4;50;129;0,9;0,0
02/09/2026;11:10:00;1014,0;-39,1;0;36,7;50;140;1,0;0,0
02/09/2026;11:15:00;1013,9;-39,1;0;37,0;49;132;1,4;0,0
02/09/2026;11:20:00;1013,9;-39,1;0;37,1;47;136;1,2;0,0
02/09/2026;11:25:00;1013,8;-39,1;0;37,2;48;134;1,1;0,0
02/09/2026;11:30:00;1013,8;-39,1;0;37,4;47;126;1,0;0,0
02/09/2026;11:35:00;1013,7;-39,1;0;37,6;46;134;1,3;0,0
02/09/2026;11:40:00;1013,7;-39,1;0;37,8;46;129;1,3;0,0
02/09/2026;11:45:00;1013,7;-39,1;0;37,7;46;135;1,2;0,0
02/09/2026;11:50:00;1013,6;-39,1;0;37,8;46;135;1,4;0,0
02/09/2026;11:55:00;1013,6;-39,1;0;37,6;47;136;1,1;0,0
02/09/2026;12:00:00;1013,5;-39,1;0;37,7;47;134;1,3;0,0
02/09/2026;12:05:00;1013,5;-39,1;0;37,9;46;130;1,1;0,0
02/09/2026;12:10:00;1013,4;-39,1;0;37,7;46;127;1,1;0,0
02/09/2026;12:15:00;1013,3;-39,1;0;37,7;47;134;1,4;0,0
02/09/2026;12:20:00;1013,2;-39,1;0;37,8;47;136;1,1;0,0
02/09/2026;12:25:00;1013,2;-39,1;0;38,0;47;135;1,2;0,0
02/09/2026;12:30:00;1013,2;-39,1;0;38,2;46;131;1,0;0,0
02/09/2026;12:35:00;1013,1;-39,1;0;38,5;45;144;1,2;0,0
02/09/2026;12:40:00;1013,1;-39,1;0;38,7;44;155;1,3;0,0
02/09/2026;12:45:00;1013,0;-39,1;0;38,8;45;137;1,0;0,0
02/09/2026;12:50:00;1012,9;-39,1;0;39,0;44;153;1,2;0,0
02/09/2026;12:55:00;1012,8;-39,1;0;39,2;44;137;1,2;0,0
02/09/2026;13:00:00;1012,7;-39,1;0;39,4;43;149;0,9;0,0
02/09/2026;13:05:00;1012,6;-39,1;0;39,5;42;135;1,3;0,0
02/09/2026;13:10:00;1012,5;-39,1;0;39,6;43;149;1,1;0,0
02/09/2026;13:15:00;1012,4;-39,1;0;39,9;42;139;1,4;0,0
02/09/2026;13:20:00;1012,3;-39,1;0;40,0;42;139;1,4;0,0
02/09/2026;13:25:00;1012,2;-39,1;0;40,2;41;128;1,3;0,0
02/09/2026;13:30:00;1012,1;-39,1;0;40,3;41;139;1,4;0,0
02/09/2026;13:35:00;1012,0;-39,1;0;40,3;41;157;1,2;0,0
02/09/2026;13:40:00;1011,9;-39,1;0;40,4;41;130;1,2;0,0
02/09/2026;13:45:00;1011,7;-39,1;0;40,2;40;141;1,2;0,0
02/09/2026;13:50:00;1011,6;-39,1;0;39,7;41;130;1,3;0,0
02/09/2026;13:55:00;1011,6;-39,1;0;39,2;42;129;1,3;0,0
02/09/2026;14:00:00;1011,5;-39,1;0;38,7;44;144;1,2;0,0
02/09/2026;14:05:00;1011,4;-39,1;0;38,7;45;135;1,1;0,0
02/09/2026;14:10:00;1011,4;-39,1;0;38,6;43;126;1,6;0,0
02/09/2026;14:15:00;1011,4;-39,1;0;38,4;44;137;1,2;0,0
02/09/2026;14:20:00;1011,3;-39,1;0;38,1;45;158;1,2;0,0
02/09/2026;14:25:00;1011,2;-39,1;0;38,4;44;145;1,4;0,0
02/09/2026;14:30:00;1011,1;-39,1;0;38,9;43;142;1,3;0,0
02/09/2026;14:35:00;1011,1;-39,1;0;39,3;41;131;1,7;0,0
02/09/2026;14:40:00;1011,0;-39,1;0;39,3;42;141;1,1;0,0
02/09/2026;14:45:00;1011,0;-39,1;0;39,4;41;120;1,4;0,0
02/09/2026;14:50:00;1011,0;-39,1;0;39,1;40;123;1,4;0,0
02/09/2026;14:55:00;1011,0;-39,1;0;39,0;40;127;1,5;0,0
02/09/2026;15:00:00;1011,0;-39,1;0;39,1;40;123;1,7;0,0
02/09/2026;15:05:00;1010,9;-39,1;0;39,3;40;133;1,4;0,0
02/09/2026;15:10:00;1010,9;-39,1;0;39,6;39;125;1,6;0,0
02/09/2026;15:15:00;1010,9;-39,1;0;39,9;39;135;1,4;0,0
02/09/2026;15:20:00;1010,9;-39,1;0;40,1;37;129;1,7;0,0
02/09/2026;15:25:00;1010,8;-39,1;0;40,0;38;132;1,4;0,0
02/09/2026;15:30:00;1010,7;-39,1;0;40,1;37;133;1,0;0,0
02/09/2026;15:35:00;1010,6;-39,1;0;40,3;37;137;1,4;0,0
02/09/2026;15:40:00;1010,6;-39,1;0;40,4;36;137;1,4;0,0
02/09/2026;15:45:00;1010,6;-39,1;0;40,4;37;141;0,9;0,0
02/09/2026;15:50:00;1010,6;-39,1;0;40,5;37;127;1,1;0,0
02/09/2026;15:55:00;1010,5;-39,1;0;40,6;36;129;1,4;0,0
02/09/2026;16:00:00;1010,5;-39,1;0;40,5;36;131;0,8;0,0
02/09/2026;16:05:00;1010,4;-39,1;0;40,4;36;129;1,0;0,0
02/09/2026;16:10:00;1010,3;-39,1;0;40,3;37;126;1,0;0,0
02/09/2026;16:15:00;1010,3;-39,1;0;39,9;38;139;1,1;0,0
02/09/2026;16:20:00;1010,2;-39,2;0;39,4;39;126;1,1;0,0
02/09/2026;16:25:00;1010,2;-39,2;0;38,8;40;140;1,0;0,0
02/09/2026;16:30:00;1010,1;-39,2;0;38,2;41;121;1,1;0,0
02/09/2026;16:35:00;1010,1;-39,2;0;37,7;41;122;1,3;0,0
02/09/2026;16:40:00;1010,1;-39,2;0;37,3;42;119;1,4;0,0
02/09/2026;16:45:00;1010,1;-39,2;0;37,0;44;120;1,2;0,0
02/09/2026;16:50:00;1010,1;-39,2;0;36,6;45;121;1,3;0,0
02/09/2026;16:55:00;1010,1;-39,1;0;36,4;45;123;1,1;0,0
02/09/2026;17:00:00;1010,1;-39,1;0;36,1;46;125;1,2;0,0
02/09/2026;17:05:00;1010,0;-39,1;0;35,9;46;139;1,5;0,0
02/09/2026;17:10:00;1010,1;-39,1;0;35,6;45;142;1,5;0,0
02/09/2026;17:15:00;1010,1;-39,1;0;35,3;47;137;1,3;0,0
02/09/2026;17:20:00;1010,1;-39,1;0;35,1;47;145;1,4;0,0
02/09/2026;17:25:00;1010,1;-39,1;0;34,9;48;141;1,3;0,0
02/09/2026;17:30:00;1010,1;-39,1;0;34,7;48;135;1,3;0,0
02/09/2026;17:35:00;1010,1;-39,1;0;34,6;49;140;1,2;0,0
02/09/2026;17:40:00;1010,1;-39,1;0;34,4;49;147;1,2;0,0
02/09/2026;17:45:00;1010,0;-39,0;0;34,2;50;150;1,2;0,0
02/09/2026;17:50:00;1010,0;-39,0;0;34,1;51;154;1,2;0,0
02/09/2026;17:55:00;1010,1;-39,0;0;34,0;51;143;1,2;0,0
02/09/2026;18:00:00;1010,1;-39,0;0;33,8;52;146;1,2;0,0
02/09/2026;18:05:00;1010,1;-39,0;0;33,7;51;147;1,2;0,0
02/09/2026;18:10:00;1010,1;-39,0;0;33,5;52;155;1,2;0,0
02/09/2026;18:15:00;1010,1;-38,9;0;33,4;52;159;1,1;0,0
02/09/2026;18:20:00;1010,2;-38,9;0;33,3;52;159;0,9;0,0
02/09/2026;18:25:00;1010,2;-38,9;0;33,1;53;156;1,1;0,0
02/09/2026;18:30:00;1010,2;-38,9;0;33,0;53;147;1,0;0,0
02/09/2026;18:35:00;1010,3;-38,8;0;32,9;54;148;1,1;0,0
02/09/2026;18:40:00;1010,3;-38,8;0;32,8;55;137;1,0;0,0
02/09/2026;18:45:00;1010,3;-38,8;0;32,6;55;148;1,0;0,0
02/09/2026;18:50:00;1010,4;-38,7;0;32,5;55;151;0,8;0,0
02/09/2026;18:55:00;1010,4;-38,7;0;32,5;56;178;0,6;0,0
02/09/2026;19:00:00;1010,5;-38,8;0;32,4;57;196;0,5;0,0
02/09/2026;19:05:00;1010,5;-38,7;0;32,4;57;186;0,5;0,0
02/09/2026;19:10:00;1010,5;-38,7;0;32,3;56;159;0,5;0,0
02/09/2026;19:15:00;1010,5;-38,7;0;32,3;56;117;0,7;0,0
02/09/2026;19:20:00;1010,6;-38,7;0;32,2;57;154;0,9;0,0
02/09/2026;19:25:00;1010,7;-38,6;0;32,1;57;181;0,6;0,0
02/09/2026;19:30:00;1010,7;-38,6;0;32,0;58;161;0,6;0,0
02/09/2026;19:35:00;1010,7;-38,5;0;32,0;58;152;0,8;0,0
02/09/2026;19:40:00;1010,8;-38,5;0;31,9;58;138;0,9;0,0
02/09/2026;19:45:00;1010,9;-38,4;0;31,8;58;128;0,9;0,0
02/09/2026;19:50:00;1011,0;-38,3;0;31,7;59;138;0,9;0,0
02/09/2026;19:55:00;1011,0;-38,3;0;31,6;59;140;0,7;0,0
02/09/2026;20:00:00;1011,0;-38,2;0;31,5;59;168;0,7;0,0
02/09/2026;20:05:00;1011,1;-38,1;0;31,4;60;151;0,4;0,0
02/09/2026;20:10:00;1011,1;-38,0;0;31,4;61;170;0,8;0,0
02/09/2026;20:15:00;1011,2;-37,9;0;31,3;61;159;0,9;0,0
02/09/2026;20:20:00;1011,2;-37,8;0;31,2;62;163;0,9;0,0
02/09/2026;20:25:00;1011,2;-37,7;0;31,1;63;149;1,2;0,0
02/09/2026;20:30:00;1011,3;-37,6;0;31,0;64;161;0,9;0,0
02/09/2026;20:35:00;1011,4;-37,5;0;30,9;65;144;1,1;0,0
02/09/2026;20:40:00;1011,5;-37,4;0;30,8;66;139;1,1;0,0
02/09/2026;20:45:00;1011,5;-37,3;0;30,7;67;145;1,1;0,0
02/09/2026;20:50:00;1011,6;-37,2;0;30,6;67;151;1,2;0,0
02/09/2026;20:55:00;1011,6;-37,1;0;30,5;68;154;1,1;0,0
02/09/2026;21:00:00;1011,7;-37,0;0;30,4;68;154;1,0;0,0
02/09/2026;21:05:00;1011,8;-36,9;0;30,3;69;183;0,7;0,0
02/09/2026;21:10:00;1011,8;-36,8;0;30,3;69;169;0,8;0,0
02/09/2026;21:15:00;1011,9;-36,7;0;30,2;69;167;0,8;0,0
02/09/2026;21:20:00;1012,0;-36,7;0;30,2;70;193;0,7;0,0
02/09/2026;21:25:00;1012,0;-36,6;0;30,1;70;171;0,7;0,0
02/09/2026;21:30:00;1012,1;-36,6;0;30,1;71;152;0,9;0,0
02/09/2026;21:35:00;1012,1;-36,6;0;30,0;71;174;0,8;0,0
02/09/2026;21:40:00;1012,2;-36,5;0;30,0;71;159;0,8;0,0
02/09/2026;21:45:00;1012,2;-36,5;0;29,9;71;151;1,0;0,0
02/09/2026;21:50:00;1012,2;-36,5;0;29,8;71;153;1,2;0,0
02/09/2026;21:55:00;1012,3;-36,6;0;29,7;71;145;1,1;0,0
02/09/2026;22:00:00;1012,4;-36,6;0;29,7;70;134;1,4;0,0
02/09/2026;22:05:00;1012,5;-36,6;0;29,6;70;128;1,4;0,0
02/09/2026;22:10:00;1012,5;-36,5;0;29,6;70;129;1,0;0,0
02/09/2026;22:15:00;1012,6;-36,5;0;29,5;71;150;0,9;0,0
02/09/2026;22:20:00;1012,6;-36,5;0;29,5;71;131;1,1;0,0
02/09/2026;22:25:00;1012,7;-36,5;0;29,5;71;120;1,0;0,0
02/09/2026;22:30:00;1012,8;-36,5;0;29,4;72;141;1,1;0,0
02/09/2026;22:35:00;1012,8;-36,5;0;29,4;72;160;0,8;0,0
02/09/2026;22:40:00;1012,8;-36,5;0;29,4;72;152;1,1;0,0
02/09/2026;22:45:00;1012,9;-36,5;0;29,3;73;187;0,3;0,0
02/09/2026;22:50:00;1012,9;-36,5;0;29,3;72;154;0,3;0,0
02/09/2026;22:55:00;1012,9;-36,5;0;29,3;72;333;0,3;0,0
02/09/2026;23:00:00;1012,9;-36,4;0;29,3;72;59;0,3;0,0
02/09/2026;23:05:00;1012,9;-36,4;0;29,3;73;166;0,4;0,0
02/09/2026;23:10:00;1012,9;-36,4;0;29,3;73;160;0,4;0,0
02/09/2026;23:15:00;1012,8;-36,4;0;29,3;74;154;0,5;0,0
02/09/2026;23:20:00;1012,8;-36,4;0;29,2;74;163;0,6;0,0
02/09/2026;23:25:00;1012,7;-36,5;0;29,2;74;160;0,5;0,0
02/09/2026;23:30:00;1012,7;-36,5;0;29,1;74;145;0,3;0,0
02/09/2026;23:35:00;1012,7;-36,5;0;29,1;74;101;0,3;0,0
02/09/2026;23:40:00;1012,6;-36,5;0;29,1;74;11;0,5;0,0
02/09/2026;23:45:00;1012,6;-36,5;0;29,0;74;12;0,5;0,0
02/09/2026;23:50:00;1012,6;-36,5;0;29,0;75;357;0,5;0,0
02/09/2026;23:55:00;1012,5;-36,6;0;28,9;75;2;0,4;0,0
